Cheyenne, WY

12:07 AM MDT on April 23, 2017 (GMT -0600)
Cheyenne

Weather History for KCYS - January, 2014

Change the Weather History Date:

Saturday, January 25, 2014

  Actual Average Record
Temperature  
Mean Temperature 44 °F 28 °F  
Max Temperature 55 °F 39 °F 61 °F (1935)
Min Temperature 32 °F 18 °F -21 °F (1902)
Degree Days  
Heating Degree Days 21 36  
Month to date heating degree days 860 901  
Since 1 July heating degree days 3760 3804  
Cooling Degree Days 0 0  
Month to date cooling degree days 0 0  
Year to date cooling degree days 0 0  
Moisture  
Dew Point 14 °F    
Average Humidity 33    
Maximum Humidity 47    
Minimum Humidity 19    
Precipitation  
Precipitation 0.00 in 0.01 in 1.18 in (1980)
Month to date precipitation 0.42 0.26  
Year to date precipitation 0.42 0.26  
Snow  
Snow 0.00 in 0.20 in 12.00 in (1980)
Month to date snowfall 7.4 4.7  
Since 1 July snowfall 33.1 27.4  
Snow Depth 0.00 in    
Sea Level Pressure  
Sea Level Pressure 30.00 in    
Wind  
Wind Speed 15 mph (WNW)    
Max Wind Speed 25 mph    
Max Gust Speed 38 mph    
Visibility 10 miles    
Events      
T = Trace of Precipitation, MM = Missing Value Source: NWS Daily Summary

Daily Weather History Graph

Daily Weather History Graph

Search for Another Location

Airport or City:

Trip Planner

Search our weather history database for the weather conditions in past years. The results will help you decide how hot, cold, wet, or windy it might be!

Date:

Astronomy

Jan. 25, 2014 Rise Set
Actual Time 7:16 AM MST 5:07 PM MST
Civil Twilight 6:46 AM MST 5:37 PM MST
Nautical Twilight 6:13 AM MST 6:10 PM MST
Astronomical Twilight 5:40 AM MST 6:43 PM MST
Moon 1:50 AM MST (1/25) 12:09 PM MST (1/25)
Length of Visible Light 10h 50m
Length of Day
9h 51m
Waning Crescent, 33% of the Moon is Illuminated
Jan 25
Waning Crescent
Jan 30
New
Feb 6
First Quarter
Feb 14
Full
Feb 22
Last Quarter

Hourly Weather History & Observations

Time (MST) Temp. Windchill Dew Point Humidity Pressure Visibility Wind Dir Wind Speed Gust Speed Precip Events Conditions
12:53 AM 36.0 °F 27.1 °F 10.0 °F 34% 30.12 in 10.0 mi West 13.8 mph - N/A   Clear
1:53 AM 35.1 °F 26.4 °F 10.0 °F 35% 30.14 in 10.0 mi West 12.7 mph - N/A   Clear
2:53 AM 36.0 °F 26.3 °F 10.9 °F 36% 30.11 in 10.0 mi WNW 16.1 mph 21.9 mph N/A   Clear
3:53 AM 37.0 °F 27.4 °F 10.0 °F 33% 30.09 in 10.0 mi WNW 17.3 mph 26.5 mph N/A   Clear
4:53 AM 34.0 °F 25.5 °F 12.0 °F 40% 30.14 in 10.0 mi West 11.5 mph - N/A   Clear
5:53 AM 33.1 °F 22.2 °F 12.9 °F 43% 30.14 in 10.0 mi West 17.3 mph - N/A   Clear
6:53 AM 33.1 °F 22.6 °F 15.1 °F 48% 30.16 in 10.0 mi West 16.1 mph - N/A   Clear
7:53 AM 34.0 °F 26.0 °F 15.1 °F 46% 30.18 in 10.0 mi West 10.4 mph - N/A   Clear
8:53 AM 37.9 °F 32.1 °F 15.1 °F 39% 30.15 in 10.0 mi North 8.1 mph - N/A   Clear
9:53 AM 45.0 °F 38.9 °F 15.1 °F 30% 30.09 in 10.0 mi NNW 12.7 mph 20.7 mph N/A   Clear
10:53 AM 50.0 °F - 17.1 °F 27% 30.02 in 10.0 mi NW 15.0 mph 25.3 mph N/A   Clear
11:53 AM 53.1 °F - 15.1 °F 22% 29.98 in 10.0 mi WNW 15.0 mph - N/A   Clear
12:53 PM 54.0 °F - 15.1 °F 22% 29.94 in 10.0 mi West 18.4 mph 31.1 mph N/A   Clear
1:53 PM 54.0 °F - 14.0 °F 21% 29.91 in 10.0 mi West 16.1 mph - N/A   Clear
2:53 PM 55.0 °F - 14.0 °F 20% 29.89 in 10.0 mi West 16.1 mph - N/A   Clear
3:53 PM 52.0 °F - 14.0 °F 22% 29.89 in 10.0 mi West 16.1 mph - N/A   Clear
4:53 PM 46.9 °F - 17.1 °F 30% 29.92 in 10.0 mi NW 9.2 mph - N/A   Clear
5:53 PM 44.1 °F 39.5 °F 18.0 °F 35% 29.94 in 10.0 mi WNW 8.1 mph - N/A   Clear
6:53 PM 41.0 °F 31.6 °F 17.1 °F 38% 29.94 in 10.0 mi West 20.7 mph 26.5 mph N/A   Clear
7:53 PM 42.1 °F 33.1 °F 14.0 °F 32% 29.91 in 10.0 mi WNW 20.7 mph 28.8 mph N/A   Clear
8:53 PM 41.0 °F 30.9 °F 14.0 °F 33% 29.88 in 10.0 mi WNW 24.2 mph 31.1 mph N/A   Clear
9:53 PM 41.0 °F 31.9 °F 15.1 °F 35% 29.86 in 10.0 mi WNW 19.6 mph 38.0 mph N/A   Clear
10:53 PM 41.0 °F 31.4 °F 16.0 °F 36% 29.84 in 10.0 mi NW 21.9 mph 29.9 mph N/A   Clear
11:53 PM 39.0 °F 31.4 °F 17.1 °F 41% 29.85 in 10.0 mi NW 12.7 mph 26.5 mph N/A   Clear